TimeCDT,TemperatureF,Dew PointF,Humidity,Sea Level PressureIn,VisibilityMPH,Wind Direction,Wind SpeedMPH,Gust SpeedMPH,PrecipitationIn,Events,Conditions,WindDirDegrees,DateUTC
12:15 AM,44.6,32.0,61,30.26,10.0,NE,11.5,16.1,N/A,,Overcast,50,2013-04-17 05:15:00
12:35 AM,44.6,32.0,61,30.27,10.0,ENE,9.2,-,N/A,,Overcast,60,2013-04-17 05:35:00
12:55 AM,44.6,32.0,61,30.27,10.0,ENE,8.1,-,N/A,,Overcast,70,2013-04-17 05:55:00
1:15 AM,44.6,32.0,61,30.27,10.0,East,9.2,-,N/A,,Overcast,80,2013-04-17 06:15:00
1:35 AM,44.6,32.0,61,30.27,10.0,ENE,9.2,-,N/A,,Overcast,70,2013-04-17 06:35:00
1:55 AM,44.6,32.0,61,30.26,10.0,ENE,9.2,-,N/A,,Overcast,60,2013-04-17 06:55:00
2:15 AM,44.6,32.0,61,30.26,10.0,ENE,8.1,-,N/A,,Overcast,70,2013-04-17 07:15:00
2:35 AM,42.8,32.0,66,30.25,10.0,ENE,9.2,-,N/A,,Overcast,70,2013-04-17 07:35:00
2:55 AM,42.8,32.0,66,30.25,10.0,East,8.1,-,N/A,,Overcast,90,2013-04-17 07:55:00
3:15 AM,42.8,32.0,66,30.25,10.0,East,5.8,-,N/A,,Overcast,90,2013-04-17 08:15:00
3:35 AM,42.8,32.0,66,30.26,10.0,East,6.9,-,N/A,,Overcast,90,2013-04-17 08:35:00
3:55 AM,42.8,32.0,66,30.24,10.0,East,6.9,-,N/A,,Overcast,90,2013-04-17 08:55:00
4:15 AM,41.0,32.0,70,30.24,10.0,East,6.9,-,N/A,,Mostly Cloudy,80,2013-04-17 09:15:00
4:55 AM,41.0,32.0,70,30.21,10.0,ENE,9.2,-,N/A,,Mostly Cloudy,70,2013-04-17 09:55:00
5:15 AM,41.0,32.0,70,30.19,10.0,ENE,9.2,-,N/A,,Overcast,70,2013-04-17 10:15:00
5:35 AM,41.0,32.0,70,30.19,10.0,ENE,12.7,16.1,N/A,,Overcast,70,2013-04-17 10:35:00
5:55 AM,41.0,32.0,70,30.20,10.0,East,10.4,-,N/A,,Overcast,100,2013-04-17 10:55:00
6:15 AM,42.8,32.0,66,30.25,10.0,ESE,9.2,-,N/A,,Overcast,120,2013-04-17 11:15:00
6:35 AM,41.0,32.0,70,30.25,10.0,ESE,9.2,-,N/A,,Overcast,110,2013-04-17 11:35:00
6:55 AM,42.8,32.0,66,30.23,10.0,East,11.5,18.4,N/A,,Overcast,100,2013-04-17 11:55:00
7:15 AM,42.8,30.2,61,30.21,10.0,East,16.1,24.2,N/A,,Overcast,90,2013-04-17 12:15:00
7:35 AM,41.0,32.0,70,30.20,10.0,East,16.1,21.9,N/A,Rain,Light Rain,90,2013-04-17 12:35:00
7:55 AM,41.0,32.0,70,30.18,10.0,ENE,17.3,24.2,0.03,Rain,Light Rain,70,2013-04-17 12:55:00
8:15 AM,39.2,33.8,81,30.14,7.0,ENE,21.9,27.6,0.01,Rain,Light Rain,70,2013-04-17 13:15:00
8:35 AM,39.2,33.8,81,30.17,5.0,ESE,15.0,25.3,0.02,Rain,Light Rain,120,2013-04-17 13:35:00
8:55 AM,39.2,33.8,81,30.23,4.0,ESE,6.9,11.5,0.05,Rain,Rain,120,2013-04-17 13:55:00
9:15 AM,39.2,33.8,81,30.21,3.0,ENE,8.1,-,0.04,Rain,Rain,70,2013-04-17 14:15:00
9:35 AM,39.2,35.6,87,30.13,7.0,East,17.3,25.3,0.07,Rain,Light Rain,90,2013-04-17 14:35:00
9:55 AM,39.2,35.6,87,30.18,10.0,East,12.7,-,0.07,Rain,Light Rain,100,2013-04-17 14:55:00
10:15 AM,39.2,35.6,87,30.14,7.0,East,13.8,-,0.02,Rain,Light Rain,90,2013-04-17 15:15:00
10:35 AM,39.2,35.6,87,30.12,5.0,East,16.1,25.3,0.05,Rain,Rain,80,2013-04-17 15:35:00
10:55 AM,39.2,35.6,87,30.15,5.0,East,13.8,-,0.08,Rain,Rain,90,2013-04-17 15:55:00
11:15 AM,39.2,35.6,87,30.09,4.0,ENE,19.6,23.0,0.04,Rain,Light Rain,70,2013-04-17 16:15:00
11:35 AM,39.2,35.6,87,30.08,10.0,ENE,17.3,25.3,0.05,Rain,Light Rain,70,2013-04-17 16:35:00
11:55 AM,39.2,35.6,87,30.15,4.0,East,9.2,17.3,0.08,Rain,Rain,80,2013-04-17 16:55:00
12:15 PM,39.2,35.6,87,30.14,2.0,East,13.8,-,0.08,Rain,Heavy Rain,90,2013-04-17 17:15:00
12:35 PM,39.2,35.6,87,30.13,2.0,ENE,10.4,-,0.15,Rain,Heavy Rain,70,2013-04-17 17:35:00
12:55 PM,39.2,35.6,87,30.14,2.5,East,12.7,-,0.23,Rain,Rain,80,2013-04-17 17:55:00
1:15 PM,39.2,37.4,93,30.14,2.5,East,8.1,-,0.06,Rain,Rain,90,2013-04-17 18:15:00
1:35 PM,39.2,37.4,93,30.11,3.0,ENE,15.0,-,0.14,Rain,Light Rain,70,2013-04-17 18:35:00
1:55 PM,41.0,37.4,87,30.09,10.0,East,18.4,-,0.14,Rain,Light Rain,90,2013-04-17 18:55:00
2:15 PM,41.0,37.4,87,30.00,10.0,East,24.2,29.9,N/A,,Overcast,90,2013-04-17 19:15:00
2:35 PM,41.0,37.4,87,29.92,10.0,East,25.3,31.1,N/A,,Overcast,80,2013-04-17 19:35:00
2:55 PM,41.0,37.4,87,29.92,10.0,East,24.2,34.5,N/A,,Overcast,90,2013-04-17 19:55:00
3:35 PM,42.8,37.4,81,30.01,10.0,ESE,10.4,23.0,N/A,,Overcast,110,2013-04-17 20:35:00
3:55 PM,42.8,37.4,81,29.99,10.0,East,13.8,20.7,N/A,,Overcast,90,2013-04-17 20:55:00
4:15 PM,42.8,37.4,81,29.96,10.0,East,17.3,24.2,N/A,,Overcast,90,2013-04-17 21:15:00
4:35 PM,42.8,37.4,81,29.99,10.0,ENE,13.8,17.3,N/A,,Overcast,70,2013-04-17 21:35:00
4:55 PM,42.8,37.4,81,29.96,10.0,East,15.0,23.0,N/A,,Overcast,80,2013-04-17 21:55:00
5:15 PM,42.8,37.4,81,29.96,10.0,East,16.1,24.2,N/A,,Overcast,90,2013-04-17 22:15:00
5:35 PM,42.8,37.4,81,29.98,10.0,East,13.8,25.3,N/A,,Overcast,80,2013-04-17 22:35:00
5:55 PM,42.8,37.4,81,29.94,10.0,East,18.4,25.3,N/A,,Overcast,90,2013-04-17 22:55:00
6:15 PM,42.8,39.2,87,29.87,10.0,East,24.2,28.8,N/A,,Overcast,90,2013-04-17 23:15:00
6:35 PM,41.0,39.2,93,29.82,7.0,East,21.9,28.8,N/A,Rain,Light Rain,90,2013-04-17 23:35:00
6:55 PM,42.8,39.2,87,29.84,10.0,East,17.3,24.2,N/A,Rain,Light Rain,90,2013-04-17 23:55:00
7:15 PM,42.8,39.2,87,29.86,7.0,East,16.1,21.9,N/A,,Overcast,80,2013-04-18 00:15:00
7:35 PM,42.8,41.0,93,29.86,10.0,East,12.7,20.7,N/A,,Overcast,100,2013-04-18 00:35:00
7:55 PM,42.8,41.0,93,29.88,10.0,ESE,15.0,23.0,N/A,Rain,Light Rain,120,2013-04-18 00:55:00
8:15 PM,42.8,41.0,93,29.91,7.0,East,8.1,-,N/A,Rain,Rain,100,2013-04-18 01:15:00
8:35 PM,42.8,41.0,93,29.87,5.0,East,11.5,16.1,0.02,Rain,Light Rain,90,2013-04-18 01:35:00
8:55 PM,42.8,41.0,93,29.83,5.0,East,13.8,19.6,0.02,Rain,Light Rain,100,2013-04-18 01:55:00
9:15 PM,42.8,41.0,93,29.83,5.0,ESE,12.7,20.7,0.02,Rain,Light Rain,110,2013-04-18 02:15:00
9:35 PM,42.8,41.0,93,29.83,5.0,East,11.5,-,0.05,Rain,Rain,100,2013-04-18 02:35:00
9:55 PM,42.8,41.0,93,29.81,7.0,NE,11.5,17.3,0.07,Rain,Rain,50,2013-04-18 02:55:00
10:15 PM,42.8,41.0,93,29.86,10.0,NNE,6.9,-,N/A,Rain,Light Rain,30,2013-04-18 03:15:00
10:35 PM,42.8,41.0,93,29.85,4.0,ENE,6.9,-,0.05,Rain,Rain,70,2013-04-18 03:35:00
10:55 PM,42.8,41.0,93,29.87,3.0,NE,5.8,-,0.14,Rain,Heavy Rain,40,2013-04-18 03:55:00
11:15 PM,42.8,41.0,93,29.85,4.0,NE,6.9,-,0.06,Rain,Rain,40,2013-04-18 04:15:00
11:35 PM,42.8,41.0,93,29.86,5.0,NE,8.1,-,0.13,Rain,Heavy Rain,40,2013-04-18 04:35:00
11:55 PM,42.8,41.0,93,29.83,3.0,ENE,12.7,-,0.22,Rain,Heavy Rain,70,2013-04-18 04:55:00